Location: Olmeneta
(45.2333°N, 10.0167°E)
Time: 18:37:45
(UTC+00:00)

Cosmos 2219 Rocket - Pass Details

Date: 03 March 2021
Orbit: 826 x 848 km, 71.0° (Epoch: 13 April)

Event Time Altitude Azimuth Distance (km) Brightness Sun altitude
Rises 17:42:18 0° 147° (SSE) 3,354 5.0 -6.5°
Reaches altitude 10° 17:46:22 10° 117° (ESE) 2,430 4.1 -7.2°
Maximum altitude 17:48:24 12° 96° (E) 2,291 3.8 -7.6°
Drops below altitude 10° 17:50:26 10° 74° (ENE) 2,440 4.0 -7.9°
Enters shadow 17:53:48 - 49° (NE) 3,175 4.7 -8.5°
